Orbital Elements
Epoch 2015 Aug. 6.0 TT = JDT 2457240.5
T 2015 Aug. 13.08425 TT MPC
q 1.2432627 (2000.0) P Q
n 0.15301476 Peri. 12.79597 +0.45633726 -0.88481961
a 3.4618945 Node 50.13553 +0.80520380 +0.36563809
e 0.6408721 Incl. 7.04024 +0.37868608 +0.28879586
P 6.44
From 3188 observations 1969 Sept. 11-2014 July 2, mean residual 0".7.
Nongravitational parameters A1 = +0.12, A2 = +0.0099.
|